Location: Basse Occidentale du Courleau
(48.3833°N, 4.8333°W)
Time: 19:19:35
(UTC+00:00)

Aureole 2 Rocket - Pass Details

Date: 05 July 2020
Orbit: 304 x 429 km, 73.9° (Epoch: 05 August)

Event Time Altitude Azimuth Distance (km) Brightness Sun altitude
Rises 22:45:34 0° 350° (N) 2,112 7.4 -15.6°
Reaches altitude 10° 22:47:52 10° 10° (N) 1,294 5.6 -15.8°
Maximum altitude 22:49:57 18° 58° (ENE) 934 4.1 -15.9°
Enters shadow 22:50:56 16° 85° (E) 1,034 4.1 -15.9°
